Weather in Krasnopillia

Ukraine / Sumi District     50°46′12″N   35°16′33″E
temp.,
°C
wind,
m/s
gust,
m/s
humid.,
%
clouds,
%
prec.,
mm/h
press.,
hPa
HPBL,
m
14 may, fri
fri1400:00+11ese3565100 0.0 101480
03:00+10e4773100 0.0 1013110
06:00+11e41189100 0.1 1012215
09:00+16se61186100 0.9 1010535
12:00+20sse697499 0.3 10091155
15:00+21sse71073100 2.0 10091324
18:00+20s51077100 1.3 1008454
21:00+16ssw378699 1.5 1009123
15 may, sat
sat1500:00+13ssw36855 0.0 101095
03:00+12s34905 0.0 101058
06:00+11s379389 0.0 1011164
09:00+16ssw577513 0.0 1012459
12:00+20ssw6863100 0.1 10121173
15:00+21sw695835 0.6 10121906
18:00+19ssw48725 0.8 1012486
21:00+16ssw1179100 0.8 101311
16 may, sun
sun1600:00+15sse2281100 0.0 101217
03:00+15sw228424 0.0 101319
06:00+14ese018627 0.0 101311
09:00+19n10710 0.0 1014421
12:00+22ese125358 0.0 10141358
15:00+23ese2248100 0.0 10131733
18:00+22ne226263 0.0 1011157
21:00+18ne467150 0.0 101192
17 may, mon
mon1700:00+16ne477978 0.0 1010119
03:00+15ne4992100 0.0 1008156
06:00+15ene4118499 0.0 1007233
09:00+19ese61173100 0.0 1006447
12:00+22se7126364 0.0 10061006
15:00+24sse6962100 0.0 10051309
18:00+22sse487262 0.0 1005359
21:00+17s2292100 2.9 100528
18 may, tue
tue1800:00+16ene2293100 4.4 100419
03:00+15nw2399100 4.6 100560
06:00+16wsw3499100 0.9 1006251
09:00+15wsw4597100 2.1 1007388
12:00+19sw567962 1.0 1008953
15:00+19wsw4573100 1.9 1008782
18:00+19sw3480100 1.4 1008716
21:00+15s23897 1.5 100824